| time (UTC) | temp F | wind direction | speed MPH | gust MPH | rain 1hr in | rain 24hr in | rain mn in | humidity % | barometer mb |
| 20260906103525 | 66 | 0 | 0.0 | 1.0 | 0.00 | 0.00 | 0.00 | 49 | 1026.1 |
| 20260906103104 | 67 | 0 | 0.0 | 4.0 | 0.00 | 0.00 | 0.00 | 49 | 1026.1 |
| 20260906102528 | 67 | 0 | 0.0 | 4.0 | 0.00 | 0.00 | 0.00 | 49 | 1026.1 |
| 20260906102026 | 67 | 20 | 2.0 | 4.0 | 0.00 | 0.00 | 0.00 | 48 | 1026.0 |
| 20260906101544 | 67 | 20 | 1.0 | 4.0 | 0.00 | 0.00 | 0.00 | 48 | 1026.0 |
| 20260906101024 | 67 | 0 | 0.0 | 4.0 | 0.00 | 0.00 | 0.00 | 47 | 1025.9 |
| 20260906100526 | 68 | 0 | 1.0 | 4.0 | 0.00 | 0.00 | 0.00 | 47 | 1025.8 |
| 20260906100055 | 68 | 18 | 0.0 | 2.0 | 0.00 | 0.00 | 0.00 | 47 | 1025.8 |
| 20260906095531 | 68 | 0 | 0.0 | 4.0 | 0.00 | 0.00 | 0.00 | 47 | 1025.7 |
| 20260906095025 | 68 | 0 | 1.0 | 5.0 | 0.00 | 0.00 | 0.00 | 48 | 1025.8 |
| 20260906094550 | 68 | 20 | 3.0 | 5.0 | 0.00 | 0.00 | 0.00 | 48 | 1025.7 |
| 20260906094026 | 68 | 33 | 1.0 | 3.0 | 0.00 | 0.00 | 0.00 | 47 | 1025.7 |
| 20260906093526 | 68 | 0 | 1.0 | 4.0 | 0.00 | 0.00 | 0.00 | 47 | 1025.8 |
| 20260906093046 | 68 | 0 | 0.0 | 4.0 | 0.00 | 0.00 | 0.00 | 47 | 1025.8 |
| 20260906092527 | 69 | 35 | 1.0 | 3.0 | 0.00 | 0.00 | 0.00 | 46 | 1025.9 |
| 20260906092024 | 69 | 37 | 0.0 | 4.0 | 0.00 | 0.00 | 0.00 | 45 | 1025.9 |
| 20260906091545 | 69 | 0 | 0.0 | 5.0 | 0.00 | 0.00 | 0.00 | 45 | 1025.9 |
| 20260906091025 | 69 | 38 | 2.0 | 7.0 | 0.00 | 0.00 | 0.00 | 45 | 1026.0 |
| 20260906090529 | 69 | 40 | 3.0 | 7.0 | 0.00 | 0.00 | 0.00 | 44 | 1026.0 |
| 20260906090045 | 70 | 352 | 2.0 | 5.0 | 0.00 | 0.00 | 0.00 | 44 | 1025.9 |
| 20260906085523 | 70 | 0 | 0.0 | 7.0 | 0.00 | 0.00 | 0.00 | 44 | 1025.8 |
| 20260906085023 | 70 | 278 | 2.0 | 7.0 | 0.00 | 0.00 | 0.00 | 43 | 1025.6 |
| 20260906084600 | 70 | 267 | 2.0 | 7.0 | 0.00 | 0.00 | 0.00 | 43 | 1025.7 |
| 20260906084027 | 70 | 0 | 2.0 | 7.0 | 0.00 | 0.00 | 0.00 | 43 | 1025.7 |
| 20260906083526 | 70 | 279 | 1.0 | 7.0 | 0.00 | 0.00 | 0.00 | 43 | 1025.7 |
| 20260906083051 | 70 | 269 | 2.0 | 7.0 | 0.00 | 0.00 | 0.00 | 43 | 1025.7 |
| 20260906082523 | 69 | 272 | 2.0 | 7.0 | 0.00 | 0.00 | 0.00 | 44 | 1025.7 |
| 20260906082026 | 69 | 269 | 2.0 | 8.0 | 0.00 | 0.00 | 0.00 | 44 | 1025.8 |
| 20260906081542 | 69 | 250 | 1.0 | 8.0 | 0.00 | 0.00 | 0.00 | 44 | 1025.7 |
| 20260906081026 | 69 | 270 | 3.0 | 8.0 | 0.00 | 0.00 | 0.00 | 45 | 1025.7 |
| 20260906080525 | 68 | 270 | 1.0 | 6.0 | 0.00 | 0.00 | 0.00 | 46 | 1025.7 |
| 20260906080042 | 68 | 0 | 0.0 | 8.0 | 0.00 | 0.00 | 0.00 | 46 | 1025.8 |
| 20260906075524 | 68 | 275 | 2.0 | 8.0 | 0.00 | 0.00 | 0.00 | 47 | 1025.8 |
| 20260906075023 | 67 | 290 | 4.0 | 8.0 | 0.00 | 0.00 | 0.00 | 48 | 1025.8 |
| 20260906074551 | 66 | 281 | 3.0 | 7.0 | 0.00 | 0.00 | 0.00 | 49 | 1025.9 |
| 20260906074026 | 66 | 294 | 3.0 | 7.0 | 0.00 | 0.00 | 0.00 | 51 | 1026.0 |
| 20260906073525 | 65 | 300 | 3.0 | 7.0 | 0.00 | 0.00 | 0.00 | 52 | 1025.9 |
| 20260906073049 | 64 | 338 | 1.0 | 4.0 | 0.00 | 0.00 | 0.00 | 53 | 1025.9 |
| 20260906072526 | 64 | 343 | 1.0 | 3.0 | 0.00 | 0.00 | 0.00 | 54 | 1026.1 |
| 20260906072027 | 64 | 343 | 1.0 | 3.0 | 0.00 | 0.00 | 0.00 | 54 | 1026.1 |
| 20260906071545 | 64 | 343 | 1.0 | 3.0 | 0.00 | 0.00 | 0.00 | 54 | 1026.1 |
| 20260906071023 | 64 | 343 | 1.0 | 3.0 | 0.00 | 0.00 | 0.00 | 54 | 1026.0 |
| 20260906070523 | 64 | 343 | 1.0 | 3.0 | 0.00 | 0.00 | 0.00 | 53 | 1026.1 |
| 20260906070056 | 64 | 343 | 1.0 | 3.0 | 0.00 | 0.00 | 0.00 | 53 | 1026.1 |
| 20260906065525 | 65 | 0 | 1.0 | 3.0 | 0.00 | 0.00 | 0.00 | 53 | 1026.1 |
| 20260906065026 | 65 | 343 | 2.0 | 3.0 | 0.00 | 0.00 | 0.00 | 53 | 1026.2 |
| 20260906064550 | 65 | 343 | 2.0 | 3.0 | 0.00 | 0.00 | 0.00 | 52 | 1026.2 |
| 20260906064033 | 65 | 343 | 0.0 | 3.0 | 0.00 | 0.00 | 0.00 | 52 | 1026.3 |
| 20260906063526 | 66 | 0 | 1.0 | 3.0 | 0.00 | 0.00 | 0.00 | 51 | 1026.2 |
| 20260906063043 | 66 | 343 | 1.0 | 3.0 | 0.00 | 0.00 | 0.00 | 51 | 1026.3 |
| 20260906062524 | 66 | 343 | 0.0 | 2.0 | 0.00 | 0.00 | 0.00 | 51 | 1026.2 |
| 20260906062029 | 66 | 343 | 0.0 | 2.0 | 0.00 | 0.00 | 0.00 | 51 | 1026.3 |
| 20260906061554 | 66 | 0 | 0.0 | 2.0 | 0.00 | 0.00 | 0.00 | 50 | 1026.2 |
| 20260906061024 | 67 | 0 | 1.0 | 2.0 | 0.00 | 0.00 | 0.00 | 50 | 1026.1 |
| 20260906060524 | 67 | 343 | 1.0 | 2.0 | 0.00 | 0.00 | 0.00 | 50 | 1026.1 |
| 20260906060050 | 68 | 0 | 0.0 | 0.0 | 0.00 | 0.00 | 0.00 | 50 | 1026.2 |
| 20260906055522 | 68 | 0 | 0.0 | 0.0 | 0.00 | 0.00 | 0.00 | 49 | 1026.1 |
| 20260906055026 | 69 | 0 | 0.0 | 0.0 | 0.00 | 0.00 | 0.00 | 48 | 1026.1 |
| 20260906054559 | 69 | 0 | 0.0 | 2.0 | 0.00 | 0.00 | 0.00 | 48 | 1026.1 |
| 20260906054024 | 70 | 0 | 0.0 | 2.0 | 0.00 | 0.00 | 0.00 | 47 | 1026.1 |
| 20260906053525 | 70 | 343 | 0.0 | 0.0 | 0.00 | 0.00 | 0.00 | 47 | 1026.1 |
| 20260906053058 | 70 | 0 | 0.0 | 0.0 | 0.00 | 0.00 | 0.00 | 47 | 1026.2 |
| 20260906052524 | 71 | 0 | 0.0 | 1.0 | 0.00 | 0.00 | 0.00 | 47 | 1026.1 |
| 20260906052023 | 71 | 0 | 0.0 | 4.0 | 0.00 | 0.00 | 0.00 | 47 | 1026.1 |
| 20260906051605 | 71 | 343 | 1.0 | 4.0 | 0.00 | 0.00 | 0.00 | 47 | 1026.1 |
| 20260906051026 | 71 | 344 | 2.0 | 4.0 | 0.00 | 0.00 | 0.00 | 47 | 1026.1 |
| 20260906050525 | 71 | 347 | 1.0 | 4.0 | 0.00 | 0.00 | 0.00 | 47 | 1026.1 |
| 20260906050046 | 71 | 348 | 1.0 | 8.0 | 0.00 | 0.00 | 0.00 | 47 | 1026.2 |
| 20260906045525 | 71 | 350 | 2.0 | 8.0 | 0.00 | 0.00 | 0.00 | 47 | 1026.1 |
| 20260906045025 | 71 | 352 | 3.0 | 8.0 | 0.00 | 0.00 | 0.00 | 48 | 1026.1 |
| 20260906044550 | 71 | 19 | 1.0 | 5.0 | 0.00 | 0.00 | 0.00 | 48 | 1026.2 |
| 20260906044027 | 71 | 30 | 2.0 | 5.0 | 0.00 | 0.00 | 0.00 | 48 | 1026.1 |
| 20260906043523 | 71 | 26 | 1.0 | 9.0 | 0.00 | 0.00 | 0.00 | 48 | 1026.1 |
| 20260906043049 | 71 | 348 | 4.0 | 9.0 | 0.00 | 0.00 | 0.00 | 49 | 1026.2 |
| 20260906042526 | 71 | 11 | 3.0 | 9.0 | 0.00 | 0.00 | 0.00 | 49 | 1026.1 |
| 20260906042026 | 71 | 351 | 3.0 | 9.0 | 0.00 | 0.00 | 0.00 | 48 | 1026.1 |
| 20260906041542 | 71 | 352 | 2.0 | 8.0 | 0.00 | 0.00 | 0.00 | 48 | 1026.2 |
| 20260906041029 | 71 | 33 | 2.0 | 8.0 | 0.00 | 0.00 | 0.00 | 47 | 1026.3 |
| 20260906040526 | 72 | 13 | 2.0 | 5.0 | 0.00 | 0.00 | 0.00 | 47 | 1026.3 |
| 20260906040122 | 72 | 9 | 2.0 | 5.0 | 0.00 | 0.00 | 0.00 | 46 | 1026.1 |
| 20260906035525 | 72 | 0 | 2.0 | 7.0 | 0.00 | 0.00 | 0.00 | 46 | 1026.2 |
| 20260906035026 | 72 | 360 | 2.0 | 9.0 | 0.00 | 0.00 | 0.00 | 46 | 1026.0 |
| 20260906034602 | 72 | 184 | 3.0 | 9.0 | 0.00 | 0.00 | 0.00 | 47 | 1025.9 |
| 20260906034024 | 72 | 9 | 3.0 | 10.0 | 0.00 | 0.00 | 0.00 | 47 | 1026.0 |
| 20260906033523 | 72 | 188 | 3.0 | 10.0 | 0.00 | 0.00 | 0.00 | 47 | 1025.9 |
| 20260906033103 | 72 | 360 | 5.0 | 9.0 | 0.00 | 0.00 | 0.00 | 47 | 1025.9 |
| 20260906032530 | 73 | 23 | 3.0 | 9.0 | 0.00 | 0.00 | 0.00 | 47 | 1025.9 |
| 20260906032026 | 73 | 360 | 5.0 | 9.0 | 0.00 | 0.00 | 0.00 | 46 | 1025.8 |
| 20260906031544 | 74 | 5 | 3.0 | 10.0 | 0.00 | 0.00 | 0.00 | 44 | 1025.7 |
| 20260906031024 | 74 | 33 | 4.0 | 11.0 | 0.00 | 0.00 | 0.00 | 41 | 1025.7 |
| 20260906030525 | 74 | 17 | 5.0 | 16.0 | 0.00 | 0.00 | 0.00 | 39 | 1025.5 |
| 20260906030054 | 74 | 30 | 5.0 | 16.0 | 0.00 | 0.00 | 0.00 | 37 | 1025.4 |
| 20260906025524 | 74 | 30 | 7.0 | 16.0 | 0.00 | 0.00 | 0.00 | 36 | 1025.2 |
| 20260906025024 | 74 | 32 | 4.0 | 10.0 | 0.00 | 0.00 | 0.00 | 35 | 1025.2 |
| 20260906024603 | 75 | 19 | 4.0 | 9.0 | 0.00 | 0.00 | 0.00 | 35 | 1024.8 |
| 20260906024027 | 75 | 25 | 3.0 | 9.0 | 0.00 | 0.00 | 0.00 | 35 | 1024.9 |
| 20260906023526 | 75 | 26 | 3.0 | 9.0 | 0.00 | 0.00 | 0.00 | 34 | 1024.7 |
| 20260906023043 | 75 | 24 | 3.0 | 5.0 | 0.00 | 0.00 | 0.00 | 34 | 1024.7 |
| 20260906022526 | 76 | 27 | 2.0 | 8.0 | 0.00 | 0.00 | 0.00 | 34 | 1024.7 |
| 20260906022025 | 76 | 31 | 3.0 | 8.0 | 0.00 | 0.00 | 0.00 | 33 | 1024.7 |
| 20260906021543 | 76 | 27 | 1.0 | 8.0 | 0.00 | 0.00 | 0.00 | 33 | 1024.7 |
| 20260906021024 | 77 | 28 | 3.0 | 7.0 | 0.00 | 0.00 | 0.00 | 33 | 1024.6 |
| 20260906020524 | 77 | 40 | 2.0 | 7.0 | 0.00 | 0.00 | 0.00 | 32 | 1024.6 |
| 20260906020050 | 77 | 40 | 2.0 | 8.0 | 0.00 | 0.00 | 0.00 | 32 | 1024.5 |
| 20260906015523 | 78 | 39 | 2.0 | 8.0 | 0.00 | 0.00 | 0.00 | 32 | 1024.5 |
| 20260906015026 | 78 | 38 | 1.0 | 9.0 | 0.00 | 0.00 | 0.00 | 32 | 1024.5 |
| 20260906014546 | 78 | 44 | 3.0 | 9.0 | 0.00 | 0.00 | 0.00 | 31 | 1024.5 |
| 20260906014025 | 79 | 42 | 3.0 | 7.0 | 0.00 | 0.00 | 0.00 | 31 | 1024.5 |
| 20260906013526 | 79 | 42 | 3.0 | 11.0 | 0.00 | 0.00 | 0.00 | 31 | 1024.5 |
| 20260906013041 | 80 | 50 | 4.0 | 12.0 | 0.00 | 0.00 | 0.00 | 30 | 1024.5 |
| 20260906012527 | 80 | 64 | 4.0 | 14.0 | 0.00 | 0.00 | 0.00 | 30 | 1024.5 |
| 20260906012025 | 80 | 63 | 4.0 | 14.0 | 0.00 | 0.00 | 0.00 | 30 | 1024.4 |
| 20260906011542 | 81 | 57 | 6.0 | 13.0 | 0.00 | 0.00 | 0.00 | 29 | 1024.5 |
| 20260906011026 | 81 | 66 | 6.0 | 15.0 | 0.00 | 0.00 | 0.00 | 29 | 1024.5 |
| 20260906010523 | 82 | 68 | 7.0 | 15.0 | 0.00 | 0.00 | 0.00 | 28 | 1024.5 |
| 20260906010048 | 83 | 62 | 6.0 | 15.0 | 0.00 | 0.00 | 0.00 | 28 | 1024.5 |
| 20260906005524 | 84 | 66 | 6.0 | 12.0 | 0.00 | 0.00 | 0.00 | 27 | 1024.5 |
| 20260906005024 | 84 | 79 | 4.0 | 12.0 | 0.00 | 0.00 | 0.00 | 28 | 1024.4 |
| 20260906004546 | 84 | 57 | 4.0 | 12.0 | 0.00 | 0.00 | 0.00 | 27 | 1024.4 |
| 20260906004027 | 84 | 65 | 6.0 | 14.0 | 0.00 | 0.00 | 0.00 | 27 | 1024.3 |
| 20260906003524 | 85 | 59 | 5.0 | 14.0 | 0.00 | 0.00 | 0.00 | 27 | 1024.3 |
| 20260906003044 | 85 | 51 | 6.0 | 14.0 | 0.00 | 0.00 | 0.00 | 27 | 1024.3 |
| 20260906002524 | 85 | 70 | 7.0 | 12.0 | 0.00 | 0.00 | 0.00 | 27 | 1024.2 |
| 20260906002025 | 86 | 94 | 6.0 | 11.0 | 0.00 | 0.00 | 0.00 | 26 | 1024.2 |
| 20260906001543 | 86 | 95 | 4.0 | 12.0 | 0.00 | 0.00 | 0.00 | 27 | 1024.2 |
| 20260906001024 | 86 | 98 | 6.0 | 13.0 | 0.00 | 0.00 | 0.00 | 26 | 1024.3 |
| 20260906000523 | 86 | 78 | 6.0 | 13.0 | 0.00 | 0.00 | 0.00 | 26 | 1024.2 |
| 20260906000050 | 86 | 68 | 6.0 | 14.0 | 0.00 | 0.00 | 0.00 | 27 | 1024.2 |
| 20260905235523 | 86 | 111 | 5.0 | 14.0 | 0.00 | 0.00 | 0.00 | 27 | 1024.1 |
| 20260905235026 | 86 | 59 | 7.0 | 14.0 | 0.00 | 0.00 | 0.00 | 27 | 1024.1 |
| 20260905234547 | 86 | 55 | 5.0 | 13.0 | 0.00 | 0.00 | 0.00 | 27 | 1024.1 |
| 20260905234023 | 86 | 77 | 2.0 | 13.0 | 0.00 | 0.00 | 0.00 | 27 | 1024.1 |
| 20260905233526 | 86 | 104 | 6.0 | 13.0 | 0.00 | 0.00 | 0.00 | 26 | 1024.0 |
| 20260905233053 | 86 | 57 | 6.0 | 13.0 | 0.00 | 0.00 | 0.00 | 27 | 1024.2 |
| 20260905232525 | 87 | 87 | 4.0 | 13.0 | 0.00 | 0.00 | 0.00 | 26 | 1024.0 |
| 20260905232024 | 87 | 51 | 5.0 | 13.0 | 0.00 | 0.00 | 0.00 | 26 | 1024.0 |
| 20260905231542 | 87 | 87 | 6.0 | 13.0 | 0.00 | 0.00 | 0.00 | 27 | 1024.2 |
| 20260905231026 | 86 | 76 | 5.0 | 13.0 | 0.00 | 0.00 | 0.00 | 27 | 1024.1 |
| 20260905230523 | 86 | 100 | 7.0 | 13.0 | 0.00 | 0.00 | 0.00 | 28 | 1024.1 |
| 20260905230057 | 86 | 82 | 5.0 | 12.0 | 0.00 | 0.00 | 0.00 | 28 | 1024.1 |
| 20260905225524 | 86 | 73 | 6.0 | 12.0 | 0.00 | 0.00 | 0.00 | 27 | 1024.2 |
| 20260905225024 | 86 | 86 | 6.0 | 16.0 | 0.00 | 0.00 | 0.00 | 28 | 1024.2 |
| 20260905224609 | 85 | 44 | 6.0 | 16.0 | 0.00 | 0.00 | 0.00 | 28 | 1024.2 |
| 20260905224024 | 85 | 85 | 6.0 | 16.0 | 0.00 | 0.00 | 0.00 | 28 | 1024.2 |
| 20260905223525 | 86 | 90 | 8.0 | 16.0 | 0.00 | 0.00 | 0.00 | 27 | 1024.2 |
| 20260905223046 | 87 | 104 | 6.0 | 14.0 | 0.00 | 0.00 | 0.00 | 27 | 1024.2 |
| 20260905222528 | 87 | 94 | 8.0 | 14.0 | 0.00 | 0.00 | 0.00 | 27 | 1024.3 |
| 20260905222024 | 87 | 72 | 6.0 | 14.0 | 0.00 | 0.00 | 0.00 | 27 | 1024.3 |
| 20260905221553 | 87 | 76 | 7.0 | 13.0 | 0.00 | 0.00 | 0.00 | 27 | 1024.3 |
| 20260905221024 | 88 | 65 | 6.0 | 15.0 | 0.00 | 0.00 | 0.00 | 27 | 1024.4 |
| 20260905220523 | 87 | 61 | 7.0 | 15.0 | 0.00 | 0.00 | 0.00 | 27 | 1024.3 |
| 20260905220048 | 87 | 36 | 3.0 | 13.0 | 0.00 | 0.00 | 0.00 | 27 | 1024.4 |
| 20260905215524 | 86 | 57 | 2.0 | 15.0 | 0.00 | 0.00 | 0.00 | 28 | 1024.5 |
| 20260905215025 | 86 | 114 | 4.0 | 15.0 | 0.00 | 0.00 | 0.00 | 29 | 1024.5 |
| 20260905214548 | 86 | 93 | 8.0 | 15.0 | 0.00 | 0.00 | 0.00 | 28 | 1024.5 |
| 20260905214026 | 87 | 63 | 8.0 | 15.0 | 0.00 | 0.00 | 0.00 | 27 | 1024.6 |
| 20260905213526 | 87 | 84 | 5.0 | 16.0 | 0.00 | 0.00 | 0.00 | 28 | 1024.6 |
| 20260905213059 | 86 | 124 | 5.0 | 16.0 | 0.00 | 0.00 | 0.00 | 29 | 1024.7 |
| 20260905212533 | 86 | 103 | 9.0 | 16.0 | 0.00 | 0.00 | 0.00 | 28 | 1024.9 |
| 20260905212026 | 86 | 54 | 8.0 | 16.0 | 0.00 | 0.00 | 0.00 | 29 | 1024.7 |
| 20260905211549 | 85 | 46 | 8.0 | 15.0 | 0.00 | 0.00 | 0.00 | 30 | 1024.7 |
| 20260905211023 | 85 | 98 | 5.0 | 12.0 | 0.00 | 0.00 | 0.00 | 30 | 1024.9 |
| 20260905210524 | 85 | 71 | 6.0 | 13.0 | 0.00 | 0.00 | 0.00 | 30 | 1025.0 |
| 20260905210100 | 85 | 96 | 6.0 | 17.0 | 0.00 | 0.00 | 0.00 | 30 | 1025.0 |
| 20260905205525 | 86 | 117 | 8.0 | 17.0 | 0.00 | 0.00 | 0.00 | 30 | 1024.9 |
| 20260905205025 | 87 | 99 | 4.0 | 14.0 | 0.00 | 0.00 | 0.00 | 29 | 1024.9 |
| 20260905204549 | 87 | 61 | 6.0 | 13.0 | 0.00 | 0.00 | 0.00 | 30 | 1025.1 |
| 20260905204023 | 86 | 115 | 4.0 | 10.0 | 0.00 | 0.00 | 0.00 | 29 | 1025.1 |
| 20260905203526 | 86 | 101 | 3.0 | 14.0 | 0.00 | 0.00 | 0.00 | 30 | 1025.2 |
| 20260905203047 | 86 | 47 | 5.0 | 17.0 | 0.00 | 0.00 | 0.00 | 30 | 1025.3 |
| 20260905202527 | 85 | 53 | 8.0 | 17.0 | 0.00 | 0.00 | 0.00 | 31 | 1025.4 |
| 20260905202023 | 86 | 98 | 8.0 | 13.0 | 0.00 | 0.00 | 0.00 | 30 | 1025.4 |
| 20260905201547 | 87 | 113 | 7.0 | 13.0 | 0.00 | 0.00 | 0.00 | 30 | 1025.5 |
| 20260905201024 | 87 | 121 | 4.0 | 9.0 | 0.00 | 0.00 | 0.00 | 30 | 1025.7 |
| 20260905200527 | 86 | 0 | 2.0 | 9.0 | 0.00 | 0.00 | 0.00 | 31 | 1025.6 |
| 20260905200042 | 85 | 169 | 4.0 | 9.0 | 0.00 | 0.00 | 0.00 | 31 | 1025.6 |
| 20260905195523 | 85 | 124 | 3.0 | 9.0 | 0.00 | 0.00 | 0.00 | 32 | 1025.7 |
| 20260905195028 | 85 | 94 | 3.0 | 12.0 | 0.00 | 0.00 | 0.00 | 32 | 1025.8 |
| 20260905194551 | 86 | 117 | 5.0 | 12.0 | 0.00 | 0.00 | 0.00 | 31 | 1025.8 |
| 20260905194024 | 86 | 95 | 3.0 | 12.0 | 0.00 | 0.00 | 0.00 | 31 | 1025.9 |
| 20260905193524 | 86 | 123 | 3.0 | 12.0 | 0.00 | 0.00 | 0.00 | 32 | 1026.1 |
| 20260905193042 | 85 | 49 | 5.0 | 12.0 | 0.00 | 0.00 | 0.00 | 33 | 1026.1 |
| 20260905192525 | 85 | 73 | 4.0 | 13.0 | 0.00 | 0.00 | 0.00 | 32 | 1026.0 |
| 20260905192025 | 85 | 89 | 3.0 | 14.0 | 0.00 | 0.00 | 0.00 | 32 | 1026.3 |
| 20260905191543 | 85 | 94 | 8.0 | 14.0 | 0.00 | 0.00 | 0.00 | 32 | 1026.4 |
| 20260905191026 | 85 | 59 | 2.0 | 13.0 | 0.00 | 0.00 | 0.00 | 32 | 1026.3 |
| 20260905190524 | 84 | 101 | 4.0 | 13.0 | 0.00 | 0.00 | 0.00 | 33 | 1026.5 |
| 20260905190041 | 84 | 99 | 4.0 | 14.0 | 0.00 | 0.00 | 0.00 | 33 | 1026.5 |
| 20260905185523 | 83 | 55 | 5.0 | 14.0 | 0.00 | 0.00 | 0.00 | 33 | 1026.6 |
| 20260905185025 | 84 | 89 | 8.0 | 14.0 | 0.00 | 0.00 | 0.00 | 32 | 1026.8 |
| 20260905184559 | 84 | 113 | 3.0 | 12.0 | 0.00 | 0.00 | 0.00 | 33 | 1026.7 |
| 20260905184023 | 84 | 109 | 4.0 | 12.0 | 0.00 | 0.00 | 0.00 | 33 | 1026.8 |
| 20260905183522 | 85 | 79 | 6.0 | 12.0 | 0.00 | 0.00 | 0.00 | 33 | 1026.9 |
| 20260905183043 | 85 | 110 | 2.0 | 10.0 | 0.00 | 0.00 | 0.00 | 33 | 1026.9 |
| 20260905182523 | 84 | 109 | 5.0 | 10.0 | 0.00 | 0.00 | 0.00 | 34 | 1026.9 |
| 20260905182026 | 84 | 113 | 3.0 | 10.0 | 0.00 | 0.00 | 0.00 | 34 | 1026.9 |
| 20260905181546 | 83 | 106 | 3.0 | 15.0 | 0.00 | 0.00 | 0.00 | 34 | 1027.1 |
| 20260905181023 | 82 | 104 | 6.0 | 15.0 | 0.00 | 0.00 | 0.00 | 36 | 1027.2 |
| 20260905180525 | 82 | 92 | 5.0 | 13.0 | 0.00 | 0.00 | 0.00 | 34 | 1027.2 |
| 20260905180046 | 83 | 111 | 4.0 | 13.0 | 0.00 | 0.00 | 0.00 | 35 | 1027.2 |
| 20260905175532 | 83 | 96 | 6.0 | 13.0 | 0.00 | 0.00 | 0.00 | 34 | 1027.3 |
| 20260905175023 | 83 | 121 | 2.0 | 11.0 | 0.00 | 0.00 | 0.00 | 36 | 1027.4 |
| 20260905174547 | 82 | 136 | 3.0 | 11.0 | 0.00 | 0.00 | 0.00 | 36 | 1027.4 |
| 20260905174023 | 81 | 105 | 3.0 | 12.0 | 0.00 | 0.00 | 0.00 | 37 | 1027.5 |
| 20260905173524 | 81 | 115 | 6.0 | 12.0 | 0.00 | 0.00 | 0.00 | 38 | 1027.6 |
| 20260905173104 | 81 | 113 | 3.0 | 12.0 | 0.00 | 0.00 | 0.00 | 38 | 1027.5 |
| 20260905172523 | 81 | 95 | 6.0 | 12.0 | 0.00 | 0.00 | 0.00 | 37 | 1027.6 |
| 20260905172025 | 81 | 96 | 4.0 | 12.0 | 0.00 | 0.00 | 0.00 | 39 | 1027.4 |
| 20260905171544 | 80 | 100 | 5.0 | 13.0 | 0.00 | 0.00 | 0.00 | 40 | 1027.4 |
| 20260905171023 | 79 | 105 | 6.0 | 14.0 | 0.00 | 0.00 | 0.00 | 41 | 1027.6 |
| 20260905170523 | 80 | 84 | 6.0 | 14.0 | 0.00 | 0.00 | 0.00 | 40 | 1027.4 |
| 20260905170045 | 80 | 95 | 6.0 | 14.0 | 0.00 | 0.00 | 0.00 | 41 | 1027.4 |
| 20260905165523 | 79 | 90 | 3.0 | 9.0 | 0.00 | 0.00 | 0.00 | 41 | 1027.4 |
| 20260905165028 | 79 | 109 | 3.0 | 9.0 | 0.00 | 0.00 | 0.00 | 42 | 1027.5 |
| 20260905164549 | 78 | 112 | 5.0 | 14.0 | 0.00 | 0.00 | 0.00 | 42 | 1027.4 |
| 20260905164023 | 78 | 93 | 7.0 | 14.0 | 0.00 | 0.00 | 0.00 | 43 | 1027.4 |
| 20260905163528 | 78 | 90 | 4.0 | 11.0 | 0.00 | 0.00 | 0.00 | 43 | 1027.4 |
| 20260905163043 | 78 | 128 | 5.0 | 14.0 | 0.00 | 0.00 | 0.00 | 43 | 1027.4 |
| 20260905162528 | 77 | 109 | 5.0 | 14.0 | 0.00 | 0.00 | 0.00 | 43 | 1027.3 |
| 20260905162023 | 77 | 101 | 6.0 | 13.0 | 0.00 | 0.00 | 0.00 | 43 | 1027.3 |
| 20260905161604 | 77 | 101 | 7.0 | 15.0 | 0.00 | 0.00 | 0.00 | 43 | 1027.2 |
| 20260905161025 | 77 | 121 | 4.0 | 15.0 | 0.00 | 0.00 | 0.00 | 43 | 1027.1 |
| 20260905160524 | 77 | 106 | 5.0 | 15.0 | 0.00 | 0.00 | 0.00 | 44 | 1027.2 |
| 20260905160048 | 77 | 131 | 4.0 | 15.0 | 0.00 | 0.00 | 0.00 | 44 | 1027.2 |
| 20260905155528 | 77 | 111 | 4.0 | 15.0 | 0.00 | 0.00 | 0.00 | 45 | 1027.2 |
| 20260905155024 | 77 | 102 | 4.0 | 12.0 | 0.00 | 0.00 | 0.00 | 45 | 1027.2 |
| 20260905154546 | 76 | 104 | 2.0 | 14.0 | 0.00 | 0.00 | 0.00 | 46 | 1027.2 |
| 20260905154032 | 76 | 112 | 6.0 | 14.0 | 0.00 | 0.00 | 0.00 | 46 | 1027.2 |
| 20260905153524 | 76 | 121 | 3.0 | 11.0 | 0.00 | 0.00 | 0.00 | 47 | 1027.2 |
| 20260905153042 | 75 | 102 | 3.0 | 11.0 | 0.00 | 0.00 | 0.00 | 48 | 1027.3 |
| 20260905152527 | 75 | 91 | 4.0 | 9.0 | 0.00 | 0.00 | 0.00 | 49 | 1027.4 |
| 20260905152026 | 74 | 107 | 3.0 | 10.0 | 0.00 | 0.00 | 0.00 | 49 | 1027.4 |
| 20260905151551 | 74 | 128 | 5.0 | 11.0 | 0.00 | 0.00 | 0.00 | 50 | 1027.3 |
| 20260905151023 | 73 | 116 | 3.0 | 11.0 | 0.00 | 0.00 | 0.00 | 51 | 1027.2 |
| 20260905150527 | 73 | 110 | 3.0 | 11.0 | 0.00 | 0.00 | 0.00 | 53 | 1027.2 |
| 20260905150050 | 72 | 103 | 3.0 | 10.0 | 0.00 | 0.00 | 0.00 | 55 | 1027.2 |
| 20260905145525 | 71 | 0 | 2.0 | 7.0 | 0.00 | 0.00 | 0.00 | 57 | 1027.2 |
| 20260905145023 | 70 | 136 | 2.0 | 7.0 | 0.00 | 0.00 | 0.00 | 59 | 1027.3 |
| 20260905144543 | 69 | 133 | 1.0 | 6.0 | 0.00 | 0.00 | 0.00 | 61 | 1027.4 |
| 20260905144023 | 68 | 161 | 0.0 | 5.0 | 0.00 | 0.00 | 0.00 | 62 | 1027.4 |
| 20260905143524 | 68 | 154 | 2.0 | 5.0 | 0.00 | 0.00 | 0.00 | 61 | 1027.4 |
| 20260905143052 | 69 | 139 | 1.0 | 6.0 | 0.00 | 0.00 | 0.00 | 61 | 1027.4 |
| 20260905142522 | 69 | 130 | 0.0 | 7.0 | 0.00 | 0.00 | 0.00 | 61 | 1027.4 |
| 20260905142023 | 69 | 125 | 2.0 | 8.0 | 0.00 | 0.00 | 0.00 | 61 | 1027.4 |
| 20260905141549 | 68 | 127 | 2.0 | 9.0 | 0.00 | 0.00 | 0.00 | 62 | 1027.4 |
| 20260905141026 | 68 | 121 | 2.0 | 9.0 | 0.00 | 0.00 | 0.00 | 63 | 1027.5 |
| 20260905140528 | 67 | 142 | 2.0 | 9.0 | 0.00 | 0.00 | 0.00 | 64 | 1027.4 |
| 20260905140045 | 66 | 121 | 3.0 | 7.0 | 0.00 | 0.00 | 0.00 | 66 | 1027.3 |
| 20260905135525 | 65 | 133 | 0.0 | 7.0 | 0.00 | 0.00 | 0.00 | 68 | 1027.2 |
| 20260905135028 | 64 | 130 | 1.0 | 7.0 | 0.00 | 0.00 | 0.00 | 69 | 1027.1 |
| 20260905134556 | 63 | 153 | 2.0 | 6.0 | 0.00 | 0.00 | 0.00 | 70 | 1027.0 |
| 20260905134026 | 62 | 0 | 2.0 | 6.0 | 0.00 | 0.00 | 0.00 | 70 | 1027.1 |
| 20260905133526 | 61 | 0 | 0.0 | 3.0 | 0.00 | 0.00 | 0.00 | 70 | 1027.1 |
| 20260905133050 | 60 | 0 | 0.0 | 3.0 | 0.00 | 0.00 | 0.00 | 72 | 1027.1 |
| 20260905132523 | 59 | 0 | 0.0 | 2.0 | 0.00 | 0.00 | 0.00 | 74 | 1027.0 |
| 20260905132024 | 58 | 0 | 0.0 | 2.0 | 0.00 | 0.00 | 0.00 | 75 | 1026.9 |
| 20260905131550 | 58 | 0 | 0.0 | 1.0 | 0.00 | 0.00 | 0.00 | 75 | 1026.8 |
| 20260905131025 | 58 | 0 | 0.0 | 0.0 | 0.00 | 0.00 | 0.00 | 74 | 1026.7 |
| 20260905130524 | 58 | 0 | 0.0 | 1.0 | 0.00 | 0.00 | 0.00 | 74 | 1026.7 |
| 20260905130046 | 58 | 0 | 0.0 | 2.0 | 0.00 | 0.00 | 0.00 | 74 | 1026.5 |
| 20260905125528 | 58 | 0 | 0.0 | 2.0 | 0.00 | 0.00 | 0.00 | 73 | 1026.5 |
| 20260905125029 | 58 | 0 | 0.0 | 3.0 | 0.00 | 0.00 | 0.00 | 73 | 1026.4 |
| 20260905124552 | 58 | 239 | 0.0 | 4.0 | 0.00 | 0.00 | 0.00 | 73 | 1026.3 |
| 20260905124024 | 59 | 234 | 1.0 | 4.0 | 0.00 | 0.00 | 0.00 | 73 | 1026.3 |
| 20260905123523 | 59 | 236 | 1.0 | 4.0 | 0.00 | 0.00 | 0.00 | 73 | 1026.2 |
| 20260905123104 | 59 | 236 | 1.0 | 4.0 | 0.00 | 0.00 | 0.00 | 73 | 1026.2 |
| 20260905122524 | 59 | 237 | 2.0 | 4.0 | 0.00 | 0.00 | 0.00 | 73 | 1026.2 |
| 20260905122027 | 59 | 227 | 2.0 | 3.0 | 0.00 | 0.00 | 0.00 | 73 | 1026.2 |
| 20260905121556 | 59 | 229 | 1.0 | 3.0 | 0.00 | 0.00 | 0.00 | 73 | 1026.1 |
| 20260905121025 | 59 | 226 | 1.0 | 3.0 | 0.00 | 0.00 | 0.00 | 72 | 1026.1 |
| 20260905120529 | 59 | 226 | 0.0 | 2.0 | 0.00 | 0.00 | 0.00 | 72 | 1026.1 |
| 20260905120057 | 60 | 0 | 0.0 | 2.0 | 0.00 | 0.00 | 0.00 | 71 | 1026.1 |
| 20260905115527 | 60 | 225 | 0.0 | 2.0 | 0.00 | 0.00 | 0.00 | 71 | 1026.1 |
| 20260905115023 | 60 | 0 | 0.0 | 3.0 | 0.00 | 0.00 | 0.00 | 71 | 1026.1 |
| 20260905114551 | 60 | 0 | 0.0 | 3.0 | 0.00 | 0.00 | 0.00 | 71 | 1026.0 |
| 20260905114025 | 60 | 229 | 0.0 | 3.0 | 0.00 | 0.00 | 0.00 | 70 | 1026.1 |
| 20260905113525 | 60 | 229 | 1.0 | 4.0 | 0.00 | 0.00 | 0.00 | 70 | 1026.1 |
| 20260905113052 | 61 | 227 | 1.0 | 4.0 | 0.00 | 0.00 | 0.00 | 70 | 1026.1 |
| 20260905112525 | 61 | 226 | 1.0 | 4.0 | 0.00 | 0.00 | 0.00 | 70 | 1026.1 |
| 20260905112024 | 61 | 0 | 1.0 | 4.0 | 0.00 | 0.00 | 0.00 | 70 | 1026.1 |
| 20260905111554 | 60 | 225 | 0.0 | 4.0 | 0.00 | 0.00 | 0.00 | 71 | 1026.2 |
| 20260905111024 | 60 | 228 | 1.0 | 5.0 | 0.00 | 0.00 | 0.00 | 71 | 1026.3 |
| 20260905110523 | 60 | 227 | 0.0 | 5.0 | 0.00 | 0.00 | 0.00 | 72 | 1026.2 |
| 20260905110050 | 60 | 281 | 1.0 | 4.0 | 0.00 | 0.00 | 0.00 | 72 | 1026.2 |
| 20260905105528 | 60 | 282 | 2.0 | 4.0 | 0.00 | 0.00 | 0.00 | 72 | 1026.1 |
| 20260905105025 | 60 | 279 | 1.0 | 3.0 | 0.00 | 0.00 | 0.00 | 71 | 1026.1 |
| 20260905104547 | 60 | 284 | 2.0 | 3.0 | 0.00 | 0.00 | 0.00 | 71 | 1026.1 |
| 20260905104025 | 61 | 286 | 1.0 | 2.0 | 0.00 | 0.00 | 0.00 | 71 | 1026.1 |